Regional Weather Roundup
Issued by NWS Nashville, TN

Home | Current Version | Previous Version | Text Only | Print | Product List | Glossary On
Versions: 1 2 3 4 5 6 7 8 9 10 11 12 13 14 15 16 17 18 19 20 21 22 23 24 25 26 27
000
ASUS44 KOHX 220110
RWROHX
MIDDLE TENNESSEE HOURLY WEATHER ROUNDUP
NATIONAL WEATHER SERVICE NASHVILLE TN
800 PM CDT SAT OCT 21 2017

NOTE: "FAIR" INDICATES FEW OR NO CLOUDS BELOW 12,000 FEET WITH
NO SIGNIFICANT WEATHER AND/OR OBSTRUCTIONS TO VISIBILITY.

* THESE REPORTS ARE NOT UNDER NWS QUALITY CONTROL AND MAY NOT
  REPORT WEATHER SUCH AS PRECIPITATION AND FOG.


TNZ005>011-023>034-057-059-062>066-078-080-220200
...NORTHERN MIDDLE TENNESSEE...

CITY           SKY/WX    TMP DP  RH WIND       PRES   REMARKS
CLARKSVILLE    CLEAR     65  57  75 SE5       30.15R
CROSSVILLE     PTCLDY    59  51  75 CALM      30.26F
GALLATIN       CLEAR     64  55  72 CALM      30.20S
DICKSON          N/A     68  59  73 SE5       30.16R
LEBANON        PTCLDY    64  53  67 CALM      30.17S
NASHVILLE      MOCLDY    70  54  56 S8        30.18R
PORTLAND       CLEAR     64  54  68 SE6       30.17S
SMYRNA         CLEAR     66  54  65 SE6       30.19S
SPARTA         CLEAR     52  48  87 CALM      30.21S
SPRINGFIELD    PTCLDY    66  59  77 CALM      30.15S
WEST NASHVILLE CLEAR     70  59  68 SE3       30.15S
$$
TNZ056-058-060-061-075>077-079-093>097-220200
...SOUTHERN MIDDLE TENNESSEE...

CITY           SKY/WX    TMP DP  RH WIND       PRES   REMARKS
COLUMBIA       PTCLDY    68  59  73 SE5       30.16S
FAYETTEVILLE   PTCLDY    64  57  77 SE7       30.20R
MURFREESBORO   CLEAR     67  52  58 SE7       30.18S
PULASKI        MOCLDY    63  61  94 CALM      30.18S
SHELBYVILLE    CLEAR     66  52  59 SE6       30.20R
TULLAHOMA      CLEAR     64  48  55 SE3       30.22S
WINCHESTER     CLEAR     66  52  59 SE6         N/A
$$


...KEY TO REMARKS...
VSB - VISIBILITY IN MILES
WCI - WIND CHILL INDEX
HX  - HEAT INDEX





USA.gov is the U.S. government's official web portal to all federal, state and local government web resources and services.